Wind_Speed
18 20 21 22 22 23 32 34 32 31 29 32 34 34 33 31 29 30 28 27 25 23 21 20 13 16 14 16 17 19 19 18 18 17 20 23 22 25 26 23 24 27 27
21 23 20 22 23 24 27 32 31 32 31 29 35 32 33 32 30 28 28 28 27 23 22 19 16 17 19 17 15 13 14 15 14 17 20 16 23 21 21 16 16 17 21
27 9 20 18 19 21 21 28 31 31 33 31 29 33 30 27 31 32 32 32 28 26 25 22 26 23 20 14 12 13 14 15 15 15 15 10 8 18 24 20 21 22 20
8 6 8 14 16 23 27 25 25 32 34 35 33 31 36 37 37 31 33 31 30 27 24 27 23 17 15 14 13 16 17 18 20 17 17 19 23 20 22 21 16 24 24
9 9 10 9 14 18 22 23 29 25 32 39 36 34 32 36 34 32 31 30 28 26 29 25 21 19 16 14 13 16 17 19 20 22 21 21 22 25 30 30 26 23 28
10 9 10 11 12 14 17 26 28 23 28 31 35 36 34 32 33 30 31 31 28 32 30 24 21 18 15 13 16 18 20 21 22 22 24 25 27 29 29 32 31 29 27
10 11 13 13 13 17 23 23 22 23 29 32 32 37 33 32 34 35 32 30 33 33 29 26 21 16 13 15 18 20 22 23 24 26 26 26 28 29 31 30 33 32 32
13 12 13 15 16 18 17 13 18 30 33 33 31 33 29 36 35 31 34 33 31 28 22 22 19 15 13 15 20 23 24 25 26 27 29 30 28 28 29 29 28 28 28
14 14 11 13 13 14 14 14 15 18 22 24 24 28 32 32 34 35 29 25 26 22 21 21 19 15 14 17 22 26 27 27 28 30 31 31 32 30 29 30 30 28 26
15 13 11 12 13 16 13 13 16 19 20 19 20 24 31 32 30 27 28 31 30 27 26 25 19 15 16 20 22 26 27 28 29 28 30 34 35 30 31 29 30 30 33
16 11 13 11 13 11 14 17 19 21 21 22 24 26 28 28 23 29 34 32 30 29 26 22 17 15 17 19 23 24 27 26 27 29 31 34 35 33 33 31 27 29 27
10 15 17 17 18 18 19 19 22 24 21 23 20 23 27 27 31 31 30 30 30 27 23 19 15 15 17 21 24 25 27 28 29 30 31 31 32 32 31 30 27 25 25
21 19 14 17 18 17 18 24 23 24 25 23 25 27 29 33 34 35 34 31 29 25 19 13 13 14 25 24 25 27 27 27 29 32 31 30 30 29 29 27 27 23 23
25 25 26 31 32 22 22 25 24 28 27 30 26 31 32 34 34 33 31 29 27 22 15 11 18 24 28 25 24 26 28 29 31 32 32 26 26 30 30 27 26 20 24
25 30 33 34 31 27 22 19 23 25 29 31 32 29 31 35 33 31 30 31 25 20 12 21 25 28 23 23 26 26 28 31 32 28 27 29 24 22 22 23 20 21 24
30 30 26 23 25 22 21 19 19 23 25 31 35 32 35 34 31 31 34 29 23 16 18 23 25 23 22 22 24 23 25 23 25 24 21 23 21 20 19 17 20 23 24
22 21 20 21 21 15 13 16 21 23 24 28 32 35 28 29 33 34 30 25 20 16 21 23 20 22 21 23 21 21 20 21 23 23 19 19 19 21 21 20 21 21 23
22 22 19 14 15 18 16 18 20 21 24 29 32 27 28 32 33 30 26 19 16 20 20 20 20 21 18 19 18 18 20 24 23 19 18 18 18 19 21 21 18 19 20
22 16 12 11 10 12 15 21 24 20 23 28 24 25 31 29 27 24 21 19 18 20 17 16 17 17 15 16 18 19 20 20 19 17 16 15 16 16 19 17 15 18 18
13 9 8 9 16 16 18 20 20 20 26 25 23 26 23 22 24 21 20 19 16 12 12 15 18 17 16 16 18 20 19 21 19 20 19 15 13 14 14 13 14 18 12
2 3 8 10 10 13 14 16 17 23 24 21 24 23 22 21 20 19 16 13 11 13 15 18 19 17 16 16 18 18 21 21 19 19 20 16 15 14 15 15 15 13 7
5 10 9 9 10 12 12 14 18 19 18 22 22 23 22 20 17 17 13 11 13 17 19 19 18 16 12 16 16 16 16 15 15 14 15 14 15 14 13 15 14 10 9
7 6 7 9 12 12 13 20 21 23 25 27 23 23 23 21 16 13 12 15 17 20 18 16 17 17 17 15 15 13 14 14 14 13 16 11 11 11 13 12 12 10 11
6 7 8 12 9 10 12 17 20 22 24 24 21 19 15 13 12 13 14 17 21 18 17 17 17 15 13 12 12 13 12 14 16 14 12 10 11 11 10 12 13 11 10
12 12 14 15 13 13 16 16 19 18 16 15 13 10 9 8 10 15 20 17 14 15 17 19 15 13 12 12 13 12 12 13 14 10 8 8 9 11 13 13 14 11 12
20 15 13 11 16 16 14 15 16 16 17 15 11 10 9 11 18 18 20 18 14 16 16 16 15 14 12 11 11 12 11 11 10 6 7 7 8 9 13 15 15 13 12
Wind_Direction
218 218 218 210 217 212 203 208 218 232 231 216 210 216 215 218 222 223 229 218 221 216 216 217 215 221 226 227 234 240 263 288 302 304 302 302 298 290 294 287 276 271 271
228 226 219 202 208 211 206 203 214 228 241 233 220 219 220 223 227 224 224 218 217 217 219 211 202 219 231 243 253 272 294 298 300 290 293 298 301 295 306 293 290 276 266
222 204 201 183 187 199 202 204 210 226 239 244 233 220 222 219 226 222 216 215 215 215 219 211 216 218 238 254 268 289 296 295 293 289 276 293 278 299 298 306 295 291 280
188 190 205 209 220 227 216 199 210 220 235 242 235 235 225 217 231 222 216 218 218 220 219 217 230 228 236 254 268 290 297 298 299 299 291 283 286 293 299 294 284 294 287
158 187 204 202 210 220 227 230 225 228 236 238 240 236 236 230 233 225 224 220 222 220 221 226 218 230 242 247 266 279 280 282 281 290 299 295 286 281 279 285 283 279 281
163 189 199 209 209 208 212 221 219 217 239 236 233 231 234 237 220 226 221 217 215 210 219 220 222 229 240 255 279 281 283 285 284 285 287 288 288 289 283 283 286 290 287
187 195 205 216 200 212 226 233 220 204 230 232 229 230 234 239 220 225 220 215 208 216 222 217 223 229 245 277 281 282 280 285 285 287 287 282 282 281 278 278 283 281 283
207 213 210 203 207 213 237 235 222 211 222 234 233 231 237 230 225 226 218 205 216 227 221 220 222 231 255 285 285 280 282 287 290 285 285 285 281 277 274 277 282 283 279
232 209 219 203 201 231 242 245 245 243 238 234 231 224 222 223 224 217 218 211 211 215 211 226 231 236 272 292 286 282 284 289 294 293 291 285 283 277 272 274 280 277 275
239 203 222 211 217 228 241 273 273 255 248 236 225 216 216 229 227 220 201 206 204 199 209 227 235 246 281 291 283 282 289 296 298 297 292 284 285 282 279 278 277 271 275
221 218 227 229 233 239 250 268 271 260 248 242 228 221 222 223 204 208 208 208 214 220 227 231 238 266 291 292 295 289 295 292 290 287 286 278 285 281 279 282 278 271 270
236 244 230 233 236 241 248 251 261 265 248 251 247 227 219 212 209 212 216 220 222 225 228 232 247 278 296 292 284 284 285 285 283 282 282 279 283 280 279 280 279 267 262
242 240 240 241 239 249 252 250 247 250 258 248 239 217 219 221 220 219 221 222 224 226 226 238 266 296 304 280 285 290 294 292 283 276 276 280 287 283 280 273 269 249 276
249 232 230 239 243 240 250 252 244 245 244 239 231 228 222 222 224 226 227 225 222 221 219 259 299 298 278 278 286 292 289 282 278 281 289 290 285 280 278 270 268 277 285
255 243 234 238 246 255 251 247 251 250 242 236 230 226 227 231 231 226 221 220 220 213 242 294 290 272 269 285 294 297 295 286 282 287 280 287 284 278 272 265 289 285 289
254 261 257 260 263 254 241 247 253 258 244 234 233 224 227 233 232 219 218 223 210 221 268 275 271 267 280 294 294 292 296 289 283 296 295 285 285 278 265 275 270 280 289
267 260 265 267 267 257 249 248 254 254 244 234 222 219 223 228 216 216 220 210 219 253 270 269 258 270 293 294 296 292 292 284 294 295 286 287 277 271 272 276 278 283 289
275 276 274 257 234 238 243 249 248 239 237 229 224 222 216 213 211 217 209 210 235 258 256 247 269 281 290 296 298 284 282 282 289 287 291 288 280 265 270 279 272 284 289
266 258 252 260 252 247 245 247 250 234 233 228 215 211 211 210 219 202 205 213 225 239 249 270 280 289 296 300 298 294 290 287 292 289 289 281 279 277 275 268 273 286 289
256 241 233 237 245 244 237 240 236 220 224 229 209 204 210 200 196 204 208 220 237 248 268 276 285 288 298 299 292 295 291 290 291 289 291 290 289 284 280 269 280 284 291
249 188 210 210 223 245 244 241 224 215 213 198 195 190 189 189 196 203 212 223 248 265 278 284 284 283 283 284 287 286 286 285 284 283 280 274 274 274 268 260 274 276 266
238 229 247 236 221 243 242 221 215 207 196 189 188 189 186 196 197 205 215 237 256 276 282 288 284 290 279 284 289 287 292 288 289 296 297 278 265 265 261 253 260 261 237
242 252 236 216 204 225 226 204 203 192 190 185 186 195 202 208 212 216 228 251 264 270 272 264 268 269 280 288 286 289 292 287 281 295 297 271 249 264 250 247 249 242 230
268 249 231 219 216 200 190 208 200 190 191 192 201 209 214 218 229 243 259 271 272 264 252 261 265 274 290 290 295 297 295 284 281 285 288 270 254 245 251 239 227 229 230
281 279 252 238 191 188 192 186 193 197 191 183 189 203 222 245 270 284 278 274 270 252 250 266 265 278 280 292 306 306 291 284 282 286 280 268 257 238 220 223 218 224 221
285 269 249 213 178 184 172 170 180 169 173 169 176 195 212 279 278 275 274 269 263 256 261 259 259 274 274 289 306 317 307 284 285 283 275 271 259 243 227 217 209 210 214
Height
1463 1465 1467 1470 1474 1477 1478 1478 1481 1485 1490 1491 1494 1496 1498 1502 1504 1507 1509 1513 1515 1518 1520 1522 1524 1527 1530 1530 1528 1528 1528 1527 1526 1523 1522 1519 1518 1518 1516 1514 1514 1516 1516
1458 1459 1461 1464 1468 1472 1474 1475 1476 1479 1484 1487 1490 1494 1495 1497 1499 1502 1505 1507 1510 1513 1515 1518 1520 1521 1522 1522 1523 1523 1521 1521 1521 1519 1517 1514 1514 1513 1514 1514 1511 1511 1511
1449 1453 1456 1460 1463 1467 1471 1472 1472 1473 1478 1482 1486 1490 1492 1495 1496 1497 1498 1501 1505 1508 1510 1513 1514 1516 1518 1520 1519 1518 1517 1516 1516 1516 1517 1513 1511 1510 1511 1509 1510 1509 1508
1445 1450 1455 1458 1461 1464 1466 1469 1472 1470 1471 1475 1478 1482 1485 1486 1488 1491 1495 1497 1501 1504 1507 1508 1510 1513 1514 1514 1516 1516 1516 1515 1515 1516 1515 1514 1511 1508 1502 1507 1503 1503 1501
1444 1450 1453 1457 1460 1462 1463 1465 1468 1470 1468 1467 1471 1475 1477 1482 1486 1488 1490 1492 1495 1499 1500 1502 1505 1506 1509 1511 1512 1512 1511 1512 1511 1510 1508 1508 1506 1506 1501 1493 1496 1497 1493
1445 1450 1454 1456 1458 1460 1459 1460 1463 1466 1464 1465 1468 1470 1472 1478 1482 1484 1486 1488 1490 1492 1493 1497 1499 1501 1504 1506 1506 1506 1506 1505 1504 1504 1502 1500 1501 1500 1499 1495 1492 1490 1489
1447 1450 1452 1453 1455 1454 1454 1454 1456 1460 1458 1459 1461 1464 1466 1471 1474 1477 1480 1481 1483 1485 1488 1491 1493 1497 1499 1501 1501 1501 1500 1499 1498 1499 1497 1496 1494 1493 1492 1490 1489 1485 1483
1444 1447 1449 1448 1448 1449 1449 1450 1451 1453 1453 1454 1457 1460 1463 1465 1468 1471 1473 1476 1479 1481 1485 1487 1488 1490 1492 1493 1493 1492 1493 1493 1491 1490 1490 1488 1487 1488 1487 1485 1483 1480 1479
1441 1444 1447 1447 1447 1446 1446 1446 1448 1448 1449 1450 1452 1454 1458 1460 1463 1466 1469 1474 1477 1478 1479 1480 1483 1485 1486 1487 1487 1487 1486 1486 1485 1485 1483 1482 1481 1481 1480 1479 1481 1476 1471
1437 1439 1443 1443 1444 1444 1442 1442 1443 1443 1444 1446 1448 1450 1453 1455 1457 1459 1464 1467 1469 1472 1474 1476 1479 1480 1481 1481 1480 1480 1479 1478 1478 1478 1475 1473 1473 1473 1472 1472 1471 1470 1468
1433 1436 1439 1442 1442 1443 1443 1441 1440 1439 1439 1440 1442 1446 1449 1453 1454 1457 1460 1462 1465 1468 1470 1471 1474 1475 1475 1475 1474 1474 1474 1472 1470 1468 1469 1465 1465 1464 1466 1465 1463 1461 1461
1430 1432 1433 1434 1436 1438 1439 1439 1437 1438 1439 1438 1440 1443 1446 1449 1452 1454 1456 1459 1460 1462 1464 1466 1468 1468 1469 1471 1468 1467 1467 1465 1464 1463 1461 1458 1456 1454 1455 1454 1455 1455 1454
1424 1426 1429 1431 1431 1431 1431 1432 1433 1434 1435 1437 1438 1439 1440 1442 1443 1446 1449 1451 1455 1458 1461 1463 1463 1463 1464 1466 1463 1460 1461 1459 1457 1454 1452 1450 1452 1452 1450 1449 1447 1447 1446
1416 1417 1419 1419 1421 1422 1422 1424 1425 1427 1428 1430 1432 1433 1434 1436 1440 1444 1445 1446 1449 1452 1455 1456 1457 1458 1460 1458 1455 1452 1450 1449 1451 1449 1447 1445 1444 1443 1443 1442 1442 1441 1442
1408 1408 1408 1410 1412 1412 1413 1416 1419 1420 1421 1424 1427 1429 1431 1435 1437 1440 1442 1442 1445 1447 1448 1448 1452 1454 1454 1451 1447 1445 1443 1441 1438 1439 1439 1438 1437 1435 1437 1436 1435 1437 1437
1398 1399 1400 1402 1402 1403 1406 1409 1412 1415 1415 1415 1418 1421 1423 1427 1431 1433 1436 1439 1440 1440 1441 1445 1446 1449 1445 1441 1438 1436 1435 1436 1433 1430 1430 1430 1431 1431 1432 1431 1432 1432 1432
1389 1390 1391 1392 1394 1396 1398 1400 1404 1408 1410 1411 1412 1415 1417 1421 1423 1427 1431 1434 1435 1434 1439 1440 1442 1442 1439 1435 1433 1431 1429 1428 1429 1427 1424 1423 1424 1425 1426 1427 1426 1427 1426
1383 1384 1385 1385 1386 1388 1391 1394 1397 1399 1400 1402 1404 1408 1411 1415 1420 1425 1428 1430 1429 1432 1433 1435 1435 1433 1432 1429 1428 1426 1425 1423 1421 1424 1421 1418 1420 1418 1420 1421 1421 1422 1420
1377 1376 1379 1381 1384 1386 1389 1392 1393 1395 1396 1397 1400 1403 1405 1411 1415 1418 1423 1424 1423 1424 1428 1428 1427 1426 1424 1424 1424 1422 1421 1420 1418 1418 1417 1415 1416 1414 1414 1415 1416 1417 1415
1372 1373 1377 1378 1380 1382 1384 1386 1387 1389 1390 1393 1397 1398 1400 1407 1412 1417 1417 1420 1420 1420 1422 1422 1420 1420 1419 1419 1418 1418 1416 1414 1413 1414 1413 1410 1412 1410 1409 1411 1413 1412 1411
1371 1373 1377 1377 1378 1381 1383 1383 1384 1385 1386 1389 1392 1397 1401 1405 1408 1412 1415 1416 1416 1416 1418 1417 1415 1413 1411 1410 1410 1412 1409 1407 1405 1407 1406 1405 1406 1405 1405 1407 1409 1409 1409
1369 1372 1373 1373 1373 1376 1378 1379 1384 1386 1387 1390 1391 1394 1398 1402 1405 1408 1409 1410 1411 1411 1410 1410 1409 1408 1407 1405 1405 1405 1402 1402 1401 1402 1400 1399 1400 1400 1401 1403 1404 1405 1406
1370 1370 1373 1371 1370 1373 1376 1373 1376 1380 1383 1386 1390 1392 1395 1398 1400 1402 1403 1405 1404 1406 1404 1405 1406 1404 1404 1399 1400 1398 1398 1399 1396 1397 1395 1393 1395 1396 1397 1399 1401 1402 1404
1370 1369 1371 1369 1369 1372 1377 1374 1376 1379 1379 1383 1387 1393 1396 1398 1398 1397 1398 1400 1400 1399 1401 1400 1400 1399 1399 1398 1394 1395 1394 1395 1394 1391 1389 1390 1391 1392 1394 1396 1398 1400 1402
1370 1369 1369 1368 1368 1373 1370 1371 1373 1378 1378 1378 1384 1389 1390 1392 1394 1395 1396 1394 1393 1395 1395 1397 1395 1394 1395 1394 1392 1390 1390 1392 1390 1386 1385 1387 1387 1388 1390 1393 1396 1398 1401
1366 1366 1368 1368 1365 1370 1372 1370 1375 1378 1380 1379 1382 1386 1387 1390 1391 1390 1390 1388 1388 1387 1387 1390 1392 1390 1391 1390 1389 1389 1387 1387 1385 1383 1383 1384 1385 1386 1388 1391 1394 1397 1399